Regional Weather Roundup
Issued by NWS

Home | Current Version | Previous Version | Graphics & Text | Print | Product List | Glossary On
Versions: 1 2 3 4 5 6 7 8 9 10 11 12 13 14 15 16 17 18 19 20 21 22 23 24 25 26 27 28 29 30 31 32 33 34 35 36 37 38 39 40 41 42 43 44 45 46 47 48 49 50
000
ASUS43 KOAX 021810
RWRNE

WEATHER ROUNDUP FOR NEBRASKA
NATIONAL WEATHER SERVICE OMAHA NE
100 PM CDT WED SEP 02 2015

NOTES: SATELLITE DATA IS BEING USED TO AUGMENT CLOUD COVER ABOVE
       12000 FEET.
       "FAIR" INDICATES FEW OR NO CLOUDS BELOW 12,000 FEET WITH NO
       SIGNIFICANT WEATHER AND/OR OBSTRUCTIONS TO VISIBILITY.

  * THESE STATIONS DO NOT REPORT WEATHER SUCH AS RAIN...SNOW OR FOG.

NEZ001>004-019>022-054>056-021900-
NEBRASKA PANHANDLE

CITY           SKY/WX    TMP DP  RH WIND       PRES   REMARKS
SCOTTSBLUFF    SUNNY     88  50  27 W8        29.97F
6HR MIN TEMP:  54; 6HR MAX TEMP:  88;

ALLIANCE       MOSUNNY   87  47  24 VRB3      29.95F
6HR MIN TEMP:  52; 6HR MAX TEMP:  87;

CHADRON        SUNNY     93  47  20 SW7       29.88F
6HR MIN TEMP:  56; 6HR MAX TEMP:  94;

KIMBALL        SUNNY     86  41  21 W3        30.03F
SIDNEY         SUNNY     91  42  18 SE6       30.02S
6HR MIN TEMP:  58; 6HR MAX TEMP:  92;

$$

NEZ057>060-069>072-079>082-021900-
SOUTHWEST NEBRASKA

CITY           SKY/WX    TMP DP  RH WIND       PRES   REMARKS
NORTH PLATTE   SUNNY     91  61  36 VRB3      29.89F HX  91
6HR MIN TEMP:  58; 6HR MAX TEMP:  91;

IMPERIAL       MOSUNNY   90  51  26 S6        29.94F
6HR MIN TEMP:  60; 6HR MAX TEMP:  91;

LEXINGTON      SUNNY     92  64  40 S7        29.89F HX  93
MCCOOK         SUNNY     94  59  31 SE8       29.90F HX  93
6HR MIN TEMP:  61; 6HR MAX TEMP:  95;

OGALLALA       SUNNY     88  54  31 W5        29.94S
$$

NEZ005>010-023>029-035>040-094-021900-
NORTH CENTRAL NEBRASKA

CITY           SKY/WX    TMP DP  RH WIND       PRES   REMARKS
VALENTINE      SUNNY     93  49  22 E3        29.84F HX  90
6HR MIN TEMP:  54; 6HR MAX TEMP:  95;

AINSWORTH      MOSUNNY   92  56  28 SE6       29.86F HX  90
BROKEN BOW     SUNNY     95  63  34 S7        29.88F HX  96
6HR MIN TEMP:  61; 6HR MAX TEMP:  95;

O`NEILL        SUNNY     93  64  37 S9        29.84F HX  94
ORD            SUNNY     93  62  35 S9        29.85F HX  93
6HR MIN TEMP:  59; 6HR MAX TEMP:  93;

THEDFORD       MOSUNNY   92  55  27 S6        29.90F HX  90
$$

NEZ041-046>049-061>064-073>077-083>087-021900-
SOUTH CENTRAL NEBRASKA

CITY           SKY/WX    TMP DP  RH WIND       PRES   REMARKS
GRAND ISLAND   FAIR      88  65  46 SE14      29.89S HX  90
6HR MIN TEMP:  65; 6HR MAX TEMP:  89;

AURORA         FAIR      88  64  45 SE12      29.89F
HASTINGS       FAIR      88  63  43 SW10      29.89F
6HR MIN TEMP:  67; 6HR MAX TEMP:  89;

HEBRON         FAIR      89  62  39 S10       29.90F HX  90
HOLDREGE       FAIR      88  60  38 S7        29.90S
KEARNEY *      FAIR      90  66  45 S9        29.89S HX  92
YORK           FAIR      86  68  54 S12       29.90S
$$

NEZ011>018-030>034-042>045-021900-
NORTHEAST NEBRASKA

CITY           SKY/WX    TMP DP  RH WIND       PRES   REMARKS
NORFOLK        FAIR      85  69  58 SE14      29.86F
6HR MIN TEMP:  63; 6HR MAX TEMP:  85;

ALBION         FAIR      85  69  57 S9        29.88S
BLAIR          FAIR      82  69  64 S17       29.91S
COLUMBUS *     FAIR      84  68  58 SE10      29.88F
FREMONT        FAIR      85  68  57 S12G17    29.90F
TEKAMAH        FAIR      84  71  65 S16       29.89F
6HR MIN TEMP:  69; 6HR MAX TEMP:  85;

WAYNE          FAIR      83  73  70 S14       29.87F
$$

NEZ050>053-065>068-078-088>093-021900-
SOUTHEAST NEBRASKA

CITY           SKY/WX    TMP DP  RH WIND       PRES   REMARKS
LINCOLN        FAIR      88  68  51 S15       29.90F HX  91
6HR MIN TEMP:  70; 6HR MAX TEMP:  88;

OMAHA EPPLEY   FAIR      84  70  62 S21       29.91F
6HR MIN TEMP:  73; 6HR MAX TEMP:  85;

BEATRICE       FAIR      87  69  55 S16       29.91F HX  91
FALLS CITY     FAIR      85  70  60 S16G22    29.95F
6HR MIN TEMP:  71; 6HR MAX TEMP:  85;

NEBRASKA CITY  FAIR      84  65  53 S16G22    29.94F
PLATTSMOUTH    FAIR      81  68  64 S16G23    29.92F
$$

NEZ044-045-051>053-067-021900-
OMAHA AREA

CITY           SKY/WX    TMP DP  RH WIND       PRES   REMARKS
OMAHA EPPLEY   FAIR      84  70  62 S21       29.91F
6HR MIN TEMP:  73; 6HR MAX TEMP:  85;

BLAIR          FAIR      82  69  64 S17       29.91S
FREMONT        FAIR      85  68  57 S12G17    29.90F
MILLARD        FAIR      84  72  67 S15G22    29.90F HX  90
OFFUTT AFB     FAIR      84  70  62 SE21      29.91F
PLATTSMOUTH    FAIR      81  68  64 S16G23    29.92F
WAHOO          FAIR      86  70  58 S13       29.90F HX  90
$$



USA.gov is the U.S. government's official web portal to all federal, state and local government web resources and services.